Location: Balsareny
(41.8670°N, 1.8830°E)
Time: 04:03:56
(UTC+01:00)

N. Korean satellite - Pass Details

Date: 03 December 2021
Orbit: 447 x 491 km, 97.3° (Epoch: 23 January)

Event Time Altitude Azimuth Distance (km) Brightness Sun altitude
Rises 06:19:04 0° 8° (N) 2,465 10.1 -18.7°
Reaches altitude 10° 06:21:08 10° 6° (N) 1,584 9.1 -18.4°
Maximum altitude 06:24:29 64° 284° (WNW) 501 6.3 -17.8°
Drops below altitude 10° 06:27:48 10° 203° (SSW) 1,567 9.1 -17.2°
Sets 06:29:49 0° 200° (SSW) 2,434 10.1 -16.8°
